Powrót do katalogu

STARLINK-35933

AktywnyŁącznośćVLEO
NORAD 66529·PAYLOAD·🇺🇸 United States

Wystrzelony Nov 19, 2025 z Cape Canaveral Space Force Station

Loading…

Następne Przeloty (najbliższe 24 godziny)

TLE

ŚwieżeSource: CelesTrak SupGP

Epoka: Sep 14, 2026, 21:29 UTC

1 66529C 25265P   26257.89562500  .00004687  00000+0  16977-3 0  2579
2 66529  43.0030 289.7364 0001474 269.3442 182.2902 15.27570685    16

Śledź STARLINK-35933 w czasie rzeczywistym z AllMySat

Download on the App Store